FW6788 Barcelona ES current weather conditions

sailwx.info

Wind from 192

Air temperature 17.8° C
Dewpoint 10.4° C

Last reported at 2020-May-29 04:01 UTC.
Time now 2020-May-29 05:02 UTC

Location: N 41°25' E 002°08'.
View on Google Maps.

See reports from other nearby stations

  
Tides and Currents Weather Stations Pressure Air Temp Water Temp Dewpoint Dewpoint Depression Visibility Wind Speed Wind Dir Waves Ship Positions
date/time (UTC)wind fromknots sea level pressurealtimeterstation pressurevisibilityair tempwater tempwave heightnotes
2020-May-29 04:01 192 17.8
2020-May-29 03:45 283 17.8
2020-May-29 03:30 187 17.2
2020-May-29 03:15 194 17.2
2020-May-29 03:01 194 17.2
2020-May-29 02:45 311 17.2
2020-May-29 02:30 311 16.7
2020-May-29 02:17 311 16.7
2020-May-29 02:02 311 16.7
2020-May-29 01:46 311 16.7
2020-May-29 01:33 311 16.7
2020-May-29 01:15 311 16.7
2020-May-29 01:00 311 16.7
2020-May-29 00:45 311 17.2
2020-May-29 00:30 311 17.2
2020-May-29 00:16 311 17.2
2020-May-29 00:00 311 17.2
2020-May-28 23:46 297 17.2
2020-May-28 23:30 297 17.2
2020-May-28 23:15 297 17.2
2020-May-28 23:01 297 17.8
2020-May-28 22:46 138 18.3
2020-May-28 22:31 138 18.3
2020-May-28 22:17 121 18.3
2020-May-28 22:01 121 18.9
2020-May-28 21:46 243 18.9
2020-May-28 21:31 243 18.9
2020-May-28 21:15 243 18.9
2020-May-28 21:00 243 18.9
2020-May-28 20:45 248 18.3
2020-May-28 20:30 270 18.3
2020-May-28 20:17 043 18.3
2020-May-28 20:01 170 18.3
2020-May-28 19:46 061 18.9
2020-May-28 19:31 063 18.9
2020-May-28 19:15 360 19.4
2020-May-28 19:00 012 20.0
2020-May-28 18:45 022 20.0
2020-May-28 18:31 137 20.6
2020-May-28 18:15 150 20.6
2020-May-28 18:00 242 0 21.1
2020-May-28 17:45 125 21.1
2020-May-28 17:31 136 1 21.1
2020-May-28 17:16 346 0 21.7
2020-May-28 17:01 096 0 21.7
2020-May-28 16:47 130 0 22.2
2020-May-28 16:31 150 22.2
2020-May-28 16:16 090 2 22.2
2020-May-28 16:00 219 0 22.8
2020-May-28 15:46 162 2 22.8
2020-May-28 15:31 155 2 22.8
2020-May-28 15:16 127 2 22.8
2020-May-28 15:01 150 1 22.8
2020-May-28 14:46 143 1 22.8
2020-May-28 14:31 123 3 22.8
2020-May-28 14:16 107 2 22.8
2020-May-28 14:00 136 2 22.8
2020-May-28 13:46 171 3 23.3
2020-May-28 13:30 115 2 23.3
2020-May-28 13:15 146 3 23.3
2020-May-28 13:02 157 3 23.3
2020-May-28 12:45 135 2 23.3
2020-May-28 12:30 108 2 23.3
2020-May-28 12:15 157 3 23.3
2020-May-28 12:00 104 1 23.3
2020-May-28 11:45 148 1 23.3
2020-May-28 11:30 094 1 23.3
2020-May-28 11:15 060 0 23.3
2020-May-28 11:01 115 1 23.3
2020-May-28 10:45 074 1 23.3
2020-May-28 10:30 059 0 22.8
2020-May-28 10:15 074 1 22.8
2020-May-28 10:00 111 0 22.8
2020-May-28 09:45 107 0 22.8
2020-May-28 09:30 065 1 22.8
2020-May-28 09:15 058 0 22.8
2020-May-28 09:00 082 1 22.8
2020-May-28 08:45 071 1 22.8
2020-May-28 08:30 096 2 22.8
2020-May-28 08:15 073 22.2
2020-May-28 08:00 150 22.2
2020-May-28 07:45 072 21.1
2020-May-28 07:30 055 0 20.6
2020-May-28 07:15 044 0 20.0
2020-May-28 07:00 045 19.4
2020-May-28 06:45 338 18.3
2020-May-28 06:30 018 17.8
2020-May-28 06:16 344 0 17.2
2020-May-28 06:01 040 17.2
2020-May-28 05:45 309 16.7
2020-May-28 05:30 305 16.7
2020-May-28 05:15 274 16.1
2020-May-28 05:01 306 16.1
2020-May-28 04:45 327 16.7
2020-May-28 04:31 327 16.7
2020-May-28 04:16 327 16.7
2020-May-28 04:01 312 0 16.7
2020-May-28 03:45 319 16.7
2020-May-28 03:30 294 16.7
2020-May-28 03:16 325 16.7
2020-May-28 03:01 057 17.2
2020-May-28 02:47 351 17.2
2020-May-28 02:31 355 17.2
2020-May-28 02:16 022 17.2
2020-May-28 02:01 036 17.2
2020-May-28 01:45 076 16.7
2020-May-28 01:31 074 0 16.7
2020-May-28 01:15 120 0 17.2
2020-May-28 01:00 043 0 17.2
2020-May-28 00:45 011 0 17.2
2020-May-28 00:30 355 0 17.2
2020-May-28 00:15 067 0 17.2
2020-May-28 00:00 067 1 17.2
2020-May-27 23:45 105 0 17.2
2020-May-27 23:30 130 0 17.2
2020-May-27 23:15 013 0 17.2
2020-May-27 23:00 271 0 17.2
2020-May-27 22:45 308 0 17.2
2020-May-27 22:30 005 0 17.2
2020-May-27 22:15 123 17.2
2020-May-27 22:00 040 17.2
2020-May-27 21:45 274 17.2
2020-May-27 21:30 342 1 17.8
2020-May-27 21:15 321 1 17.8
2020-May-27 21:00 334 17.8
2020-May-27 20:45 360 17.8
2020-May-27 20:31 343 17.8
2020-May-27 20:16 263 0 17.8
2020-May-27 20:00 350 17.8
2020-May-27 19:45 346 18.3
2020-May-27 19:30 047 18.3
2020-May-27 19:16 331 18.3
2020-May-27 19:01 027 0 18.3
2020-May-27 18:46 325 0 18.3
2020-May-27 18:31 336 18.9
2020-May-27 18:16 059 18.9
2020-May-27 18:01 053 0 18.9
2020-May-27 17:47 314 0 19.4
2020-May-27 17:31 119 0 20.0
2020-May-27 17:16 107 0 20.0
2020-May-27 17:01 117 1 20.6
2020-May-27 16:46 080 0 20.6
2020-May-27 16:32 057 1 21.1
2020-May-27 16:16 084 0 20.6
2020-May-27 16:01 087 1 21.1
2020-May-27 15:46 096 3 21.1
2020-May-27 15:31 078 1 21.7
2020-May-27 15:16 049 2 21.7
2020-May-27 15:00 101 3 21.7
2020-May-27 14:47 076 3 21.7
2020-May-27 14:31 070 3 22.2
2020-May-27 14:16 061 4 22.2
2020-May-27 14:01 102 4 22.2
2020-May-27 13:46 071 5 22.2
2020-May-27 13:31 344 4 22.2
2020-May-27 13:15 088 3 22.8
2020-May-27 12:45 112 3 22.8
2020-May-27 12:30 082 3 22.8
2020-May-27 12:16 061 3 22.8
2020-May-27 12:00 071 3 22.2
2020-May-27 11:45 111 3 22.2
2020-May-27 11:30 111 3 22.8
2020-May-27 11:15 064 3 23.3
2020-May-27 11:01 065 1 22.8
2020-May-27 10:45 044 1 22.8
2020-May-27 10:31 125 1 23.3
2020-May-27 10:17 098 1 22.8
2020-May-27 10:01 089 2 22.8
2020-May-27 09:45 080 2 22.8
2020-May-27 09:31 038 4 22.2
2020-May-27 09:15 071 3 22.2
2020-May-27 09:00 081 3 22.2
2020-May-27 08:45 087 4 22.2
2020-May-27 08:31 073 4 21.7
2020-May-27 08:16 090 5 22.2
2020-May-27 08:00 088 2 21.7
2020-May-27 07:45 107 4 21.7
2020-May-27 07:30 106 2 21.7
2020-May-27 07:15 117 2 21.7
2020-May-27 07:00 057 0 21.1
2020-May-27 06:45 326 2 20.6
2020-May-27 06:30 316 1 20.6
2020-May-27 06:15 039 2 20.6
2020-May-27 06:00 338 3 20.6
2020-May-27 05:45 077 2 20.6
2020-May-27 05:30 324 2 20.6
2020-May-27 05:15 075 0 20.0
2020-May-27 05:00 030 0 20.0